Hoquiam, WA

9:43 PM PST on February 27, 2017 (GMT -0800)
Bowerman

Weather History for KHQM - May, 2013

Change the Weather History Date:

Sunday, May 5, 2013

  Actual Average Record
Temperature  
Mean Temperature 68 °F 51 °F  
Max Temperature 87 °F 58 °F 87 °F (2013)
Min Temperature 48 °F 44 °F 32 °F (2010)
Degree Days  
Heating Degree Days 0 14  
Month to date heating degree days 42 70  
Cooling Degree Days 3 0  
Month to date cooling degree days 3 0  
Year to date cooling degree days 3 0  
Growing Degree Days 18 (Base 50)    
Moisture  
Dew Point 44 °F    
Average Humidity 47    
Maximum Humidity 78    
Minimum Humidity 15    
Precipitation  
Precipitation 0.00 in 0.12 in 0.64 in (2009)
Month to date precipitation 0.00 0.62  
Year to date precipitation 26.32 30.25  
Sea Level Pressure  
Sea Level Pressure 29.86 in    
Wind  
Wind Speed 6 mph (NE)    
Max Wind Speed 17 mph    
Max Gust Speed 25 mph    
Visibility 10 miles    
Events      
T = Trace of Precipitation, MM = Missing Value Source: NWS Daily Summary

Daily Weather History Graph

Daily Weather History Graph

Search for Another Location

Airport or City:

Trip Planner

Search our weather history database for the weather conditions in past years. The results will help you decide how hot, cold, wet, or windy it might be!

Date:

Astronomy

May. 05, 2013 Rise Set
Actual Time 5:53 AM PDT 8:32 PM PDT
Civil Twilight 5:19 AM PDT 9:06 PM PDT
Nautical Twilight 4:35 AM PDT 9:50 PM PDT
Astronomical Twilight 3:44 AM PDT 10:41 PM PDT
Moon 3:43 AM PDT (5/5) 4:23 PM PDT (5/5)
Length of Visible Light 15h 47m
Length of Day
14h 38m
Waning Crescent, 17% of the Moon is Illuminated
May 5
Waning Crescent
May 9
New
May 17
First Quarter
May 24
Full
May 31
Last Quarter

Hourly Weather History & Observations

Time (PDT) Temp. Dew Point Humidity Pressure Visibility Wind Dir Wind Speed Gust Speed Precip Events Conditions
12:53 AM 57.9 °F 43.0 °F 58% 29.97 in 10.0 mi Calm Calm - N/A   Clear
1:53 AM 59.0 °F 39.9 °F 49% 29.96 in 10.0 mi North 4.6 mph - N/A   Clear
2:53 AM 54.0 °F 44.1 °F 69% 29.96 in 10.0 mi Calm Calm - N/A   Clear
3:53 AM 51.1 °F 44.1 °F 77% 29.95 in 10.0 mi ENE 4.6 mph - N/A   Clear
4:53 AM 51.1 °F 44.1 °F 77% 29.94 in 10.0 mi Calm Calm - N/A   Clear
5:53 AM 51.1 °F 43.0 °F 74% 29.94 in 10.0 mi ENE 4.6 mph - N/A   Clear
6:53 AM 53.1 °F 43.0 °F 69% 29.92 in 10.0 mi NE 8.1 mph - N/A   Clear
7:53 AM 57.9 °F 44.1 °F 60% 29.93 in 10.0 mi ENE 8.1 mph - N/A   Clear
8:53 AM 63.0 °F 46.0 °F 54% 29.92 in 10.0 mi East 6.9 mph - N/A   Clear
9:53 AM 66.0 °F 46.0 °F 48% 29.91 in 10.0 mi East 6.9 mph - N/A   Clear
10:53 AM 69.8 °F 48.2 °F 46% 29.89 in 10.0 mi East 9.2 mph - N/A   Clear
11:53 AM 75.0 °F 46.9 °F 37% 29.88 in 10.0 mi East 10.4 mph - N/A   Clear
12:53 PM 75.9 °F 46.9 °F 36% 29.85 in 10.0 mi ESE 9.2 mph - N/A   Clear
1:53 PM 82.0 °F 43.0 °F 25% 29.83 in 10.0 mi East 13.8 mph - N/A   Clear
2:53 PM 84.9 °F 35.1 °F 17% 29.82 in 10.0 mi NE 12.7 mph 20.7 mph N/A   Clear
3:53 PM 86.0 °F 33.1 °F 15% 29.79 in 10.0 mi North 9.2 mph 17.3 mph N/A   Clear
4:53 PM 86.0 °F 33.1 °F 15% 29.77 in 10.0 mi NNE 10.4 mph - N/A   Clear
5:53 PM 82.9 °F 37.0 °F 19% 29.76 in 10.0 mi NW 8.1 mph - N/A   Clear
6:53 PM 81.0 °F 41.0 °F 24% 29.75 in 10.0 mi NW 6.9 mph - N/A   Clear
7:53 PM 75.0 °F 45.0 °F 34% 29.76 in 10.0 mi Calm Calm - N/A   Clear
8:53 PM 64.9 °F 51.1 °F 61% 29.76 in 10.0 mi Calm Calm - N/A   Clear
9:53 PM 60.1 °F 53.1 °F 78% 29.78 in 10.0 mi Calm Calm - N/A   Clear
10:53 PM 59.0 °F 50.0 °F 72% 29.80 in 10.0 mi Calm Calm - N/A   Clear
11:53 PM 61.0 °F 48.9 °F 64% 29.81 in 10.0 mi NNE 4.6 mph - N/A   Clear